Location: Newark
(43.0000°N, 1.6781°W)
Time: 08:27:10
(UTC+00:00)

Vanguard 1 - Pass Details

Date: 19 April 2021
Orbit: 649 x 3834 km, 34.2° (Epoch: 04 May)

Event Time Altitude Azimuth Distance (km) Brightness Sun altitude
Rises 18:38:43 0° 277° (W) 7,152 17.1 1.9°
Reaches altitude 10° 18:43:11 10° 273° (W) 6,415 16.2 1.1°
Maximum altitude 19:04:33 55° 204° (SSW) 4,282 13.4 -2.7°
Drops below altitude 10° 19:24:40 10° 133° (SE) 6,064 13.5 -6.1°
Enters shadow 19:27:13 - 131° (SE) 6,485 13.6 -6.5°
